Regional Weather Roundup
Issued by NWS Upton, NY

Current Version | Previous Version | Text Only | Print | Product List | Glossary Off
Versions: 1 2 3 4 5 6 7 8 9 10 11 12 13 14 15 16 17 18 19 20 21 22 23 24 25 26 27 28 29 30 31 32 33 34 35 36 37 38 39 40 41 42 43 44 45 46 47 48 49 50
000 ASUS41 KOKX 291705 RWROKX REGIONAL WEATHER ROUNDUP NATIONAL WEATHER SERVICE NEW YORK NY 100 PM EDT FRI JUL 29 2016 NOTE: "FAIR" INDICATES FEW OR NO CLOUDS BELOW 12,000 FEET WITH NO SIGNIFICANT WEATHER AND/OR OBSTRUCTIONS TO VISIBILITY. NYZ071-072-176-178-NJZ106-104-291800- NEW YORK CITY METRO AREA CITY SKY/WX TMP DP RH WIND PRES REMARKS Central Park CLOUDY 76 68 76 VRB3 29.88F LaGuardia APRT MOSUNNY 79 67 66 NE16 29.84F Kennedy INTL PTSUNNY 77 68 73 NE17 29.85F Newark/Liberty PTSUNNY 79 68 69 N13 29.84F Bronx Bot Gard N/A 77 66 69 N6 29.87S Wall St Helipt CLOUDY 79 70 73 NE9G17 29.85S Teterboro MOSUNNY 81 66 60 VRB7 29.83F $$ NYZ177-179-078>081-291800- LONG ISLAND NEW YORK CITY SKY/WX TMP DP RH WIND PRES REMARKS Farmingdale CLOUDY 73 69 87 NE10G20 29.84F MacArthur/ISP CLOUDY 74 69 85 N12G21 29.83F Shirley CLOUDY N/A N/A N/A MISG 29.83F Riverhead NOT AVBL Westhampton CLOUDY 74 69 85 NE18 29.84F Southhampton N/A 70 70 100 NE8 29.78F Bridgehampton N/A 70 68 94 E5 29.83F East Hampton CLOUDY 70 68 92 NE9G16 29.83F Montauk N/A 70 68 93 N9 29.85F $$ NYZ052-065-067-291800- HUDSON VALLEY CITY SKY/WX TMP DP RH WIND PRES REMARKS White Plains PTSUNNY 79 68 69 E7 29.85F Newburgh MOSUNNY 77 70 78 NE14 29.88F Montgomery SUNNY 83 67 58 NE8 29.85F Poughkeepsie SUNNY 86 66 51 N9G17 29.84F Albany MOSUNNY 83 68 60 N8 29.88F $$ NJZ001-105-106-008-010-013-015-019>022-104-291800- NEW JERSEY CITY SKY/WX TMP DP RH WIND PRES REMARKS Newark/Liberty PTSUNNY 79 68 69 N13 29.84F Teterboro MOSUNNY 81 66 60 VRB7 29.83F Caldwell PTSUNNY 80 67 64 VRB6 29.85F Morristown MOSUNNY 81 70 69 NE9G17 29.85F Somerville PTSUNNY 84 67 56 NE8 29.83F Linden CLOUDY 80 65 60 NE7 29.86F Sussex SUNNY 81 68 64 NE9 29.86F Abdover N/A 81 67 62 VRB7 29.87F Trenton MOSUNNY 82 68 62 NE13 29.84F Millville PTSUNNY 83 68 60 N10 29.84S Atlantic City CLOUDY 80 70 71 N13 29.83R Wrightstown PTSUNNY 77 70 78 N12G20 29.82F Toms River CLOUDY 77 71 82 N12 29.84F Belmar CLOUDY 77 69 76 N13 29.85S $$ PAZ047>061-062-071-291800- EASTERN PENNSYLVANIA CITY SKY/WX TMP DP RH WIND PRES REMARKS Philadelphia PTSUNNY 84 68 58 N13 29.84F Allentown MOSUNNY 83 68 60 VRB6 29.86F Scranton PTSUNNY 83 66 56 N8 29.89F $$ CTZ002-004>006-009-010-012-RIZ004-006-007-MAZ004-011-015-291800- SOUTHERN NEW ENGLAND IN CT CITY SKY/WX TMP DP RH WIND PRES REMARKS Bradley INTL MOSUNNY 84 64 50 NE7 29.86F Hartford MOSUNNY 84 66 54 E3 29.85F Danbury PTSUNNY 80 67 64 E7 29.87F Wtrbury/Oxford PTSUNNY 77 64 65 E9 29.90F Bridgeport CLOUDY 77 70 79 NE9 29.85F Meriden MOSUNNY 82 66 58 NE8 29.86F New Haven PTSUNNY 76 70 82 N13 29.85F Chester LGT RAIN 73 72 94 NE7 29.86F Groton LGT RAIN 74 70 87 NE6 29.84F Wilimantic MOSUNNY 79 70 74 NE6 29.87F IN RI CITY SKY/WX TMP DP RH WIND PRES REMARKS Providence CLOUDY 75 70 84 NE8 29.85F Block Island CLOUDY 71 70 96 NE10 29.85 Westerly CLOUDY 74 69 85 NE6 29.85F HAZE IN MA CITY SKY/WX TMP DP RH WIND PRES REMARKS Boston CLOUDY 73 70 90 SE3 29.87F Worchester MOSUNNY 78 66 66 CALM 29.90F Westfield SUNNY 85 63 47 VRB3 29.85F Provincetown LGT RAIN 72 72 100 N6 29.86F FOG Nantucket RAIN 68 66 93 N13 29.84F FOG $$ ANZ330-335-338-340-345-350-353-355-291800- COASTAL MARINE OBSERVATIONS STATION/POSITION TIME SKY/WX TEMP WIND PRES VSBY WAVE AIR SEA DIR/SP/G HT/PER (UTC) (F) (DEG/KT/KT) (MB) (MI) (FT/S) NY HARB ENTRANCE 1550 72 71 10/ 16/ 17 1009.9 3/ 4 20S FIRE ISLAND 1550 70 75 10/ 23/ 29 1008.8 4/ 5 GREAT SOUTH BAY 1600 72 81 30/ 14/ 17 N/A 23 SSW MONTAUK P 1550 70 72 50/ 21/ 25 1009.5 2/ 3 15 E BARNEGAT LI 1600 78 N/A 6/ 6 HUDSON CANYON 1550 80 79 1007.0 2/ 4 KINGS POINT 1600 74 72 1010.9 EXECUTION ROCKS 1600 74 40/ 10/ 14 N/A CENTRAL LI SOUND NOT AVBL EASTERN LI SOUND 1600 69 67 10/ 14/ 19 N/A ROBBINS REEF 1600 75 20/ 11/ 12 1010.2 $$ >>>>>>>>>>>>>>>>>>>>>>>>>>>> KEY <<<<<<<<<<<<<<<<<<<<<<<<<<< > < > SKY/WX - Sky Condition/Present Weather < > TMP - Temperature in Fahrenheit < > DP - Dew Point in Fahrenheit < > RH - Relative Humidity in Percent < > WIND - Direction (from) and Speed in MPH < > PRES - Mean Sea Level Pressure (inches of Hg) < > WCI - Wind Chill Index < > VSB - VISIBILITY IN MILES < > HX - HEAT INDEX < > TC - TEMPERATURE IN CELSIUS < > VRB - VARIABLE WIND DIRECTION < > < >>>>>>>>>>>>>>>>>>>>>>>>>>>> KEY <<<<<<<<<<<<<<<<<<<<<<<<<<<

USA.gov is the U.S. government's official web portal to all federal, state and local government web resources and services.